Location: Siloam Springs
(36.1880°N, 94.5400°W)
Time: 03:14:12
(UTC-06:00)

ISS - Visible Passes

Search period start: 16 November 2018 00:00
Search period end: 26 November 2018 00:00
Orbit: 401 x 408 km, 51.6° (Epoch: 16 November)

Date Brightness Start Highest point End Pass type
(mag) Time Alt. Az. Time Alt. Az. Time Alt. Az.
16 Nov -1.7 04:49:32 26° ESE 04:49:32 26° ESE 04:51:07 10° SE visible
17 Nov -1.8 05:32:49 17° SSW 05:32:49 17° SSW 05:34:18 10° S visible
21 Nov -2.3 18:38:47 10° SSW 18:40:50 25° SSE 18:40:50 25° SSE visible
22 Nov -1.7 17:47:49 10° SSE 17:49:38 14° SE 17:51:13 11° E visible
22 Nov -1.2 19:22:41 10° WSW 19:23:55 20° WSW 19:23:55 20° WSW visible
23 Nov -4.0 18:30:21 10° SW 18:33:36 85° SE 18:34:12 56° NE visible
24 Nov -3.1 17:38:26 10° SSW 17:41:28 38° SE 17:44:23 11° ENE visible
24 Nov -1.2 19:15:29 10° W 19:17:03 18° WNW 19:17:03 18° WNW visible
25 Nov -2.6 18:22:39 10° WSW 18:25:41 35° NW 18:27:09 23° NNE visible
